Location: Unspecified
(0.0000°N, 0.0000°E)
Time: 08:45:57
(UTC+00:00)

Transit 2A Rocket - All Passes

Search period start: 23 May 2017 00:00
Search period end: 02 June 2017 00:00
Orbit: 593 x 911 km, 66.7° (Epoch: 22 May)

Date Brightness Start Highest point End Pass type
(mag) Time Alt. Az. Time Alt. Az. Time Alt. Az.
23 May - 01:09:41 10° SSE 01:12:40 17° ESE 01:15:30 10° ENE night (unlit)
23 May - 02:51:30 10° WSW 02:54:57 21° WNW 02:58:16 10° NNW night (unlit)
23 May - 13:36:13 10° N 13:41:43 56° ENE 13:47:34 10° SSE daylight
23 May - 15:22:27 10° W 15:24:17 11° WSW 15:26:08 10° SW daylight
24 May - 02:08:12 10° SW 02:12:42 49° WNW 02:16:55 10° N night (unlit)
24 May - 12:54:41 10° NNE 12:59:26 28° ENE 13:04:25 10° SE daylight
24 May - 14:37:19 10° WNW 14:41:49 24° WSW 14:46:32 10° SSW daylight
25 May - 01:25:44 10° SSW 01:30:24 68° ESE 01:34:44 10° NNE night (unlit)
25 May - 12:14:23 10° NE 12:17:08 14° ENE 12:19:57 10° E daylight
25 May - 13:53:59 10° NW 13:59:25 46° WSW 14:05:11 10° S daylight
26 May - 00:44:01 10° S 00:48:02 28° ESE 00:51:49 10° NE night (unlit)
26 May - 02:28:37 10° W 02:30:14 12° WNW 02:31:49 10° NW night (unlit)
26 May - 13:11:23 10° NNW 13:17:04 89° ENE 13:23:07 10° SSE daylight
27 May - 00:03:40 10° SE 00:05:37 12° ESE 00:07:30 10° E night (unlit)
27 May - 01:44:05 10° SW 01:47:58 27° WNW 01:51:40 10° NNW night (unlit)
27 May - 12:29:23 10° N 12:34:45 44° ENE 12:40:27 10° SE daylight
27 May - 14:14:05 10° WNW 14:17:16 15° WSW 14:20:30 10° SW daylight
28 May - 01:01:05 10° SSW 01:05:41 66° WNW 01:10:00 10° NNE night (unlit)
28 May - 11:48:08 10° NNE 11:52:28 22° ENE 11:57:00 10° ESE daylight
28 May - 13:29:53 10° NW 13:34:49 29° WSW 13:40:00 10° S daylight
29 May - 00:18:52 10° S 00:23:22 50° ESE 00:27:36 10° NE night (unlit)
29 May - 11:09:06 10° ENE 11:10:10 10° ENE 11:11:14 10° E daylight
29 May - 12:46:50 10° NNW 12:52:26 58° WSW 12:58:23 10° S daylight
29 May - 23:37:27 10° SSE 23:41:00 21° ESE 23:44:22 10° ENE night (unlit)
30 May - 01:20:33 10° WSW 01:23:14 16° WNW 01:25:50 10° NW night (unlit)
30 May - 12:04:25 10° NNW 12:10:05 72° ENE 12:16:07 10° SSE daylight
31 May - 00:36:47 10° SW 00:40:58 36° WNW 00:44:57 10° N night (unlit)
31 May - 11:22:37 10° N 11:27:47 36° ENE 11:33:14 10° SE daylight
31 May - 13:06:16 10° WNW 13:10:15 19° WSW 13:14:21 10° SSW daylight
31 May - 23:54:04 10° SSW 23:58:41 89° WNW 00:03:01 10° NNE night (unlit)
01 Jun - 10:41:43 10° NNE 10:45:30 18° ENE 10:49:25 10° ESE daylight
01 Jun - 12:22:33 10° NW 12:27:50 37° WSW 12:33:22 10° S daylight
01 Jun - 23:12:04 10° S 23:16:21 37° ESE 23:20:22 10° NE night (unlit)
